| time (UTC) | temp F | wind direction | speed MPH | gust MPH | rain 1hr in | rain 24hr in | rain mn in | humidity % | barometer mb |
| 20260831132011 | 73 | 233 | 0.0 | 0.0 | 0.00 | 0.00 | 0.00 | 99 | 1020.4 |
| 20260831131008 | 73 | 238 | 0.0 | 0.0 | 0.00 | 0.00 | 0.00 | 99 | 1020.2 |
| 20260831130002 | 73 | 290 | 0.0 | 0.0 | 0.00 | 0.00 | 0.00 | 99 | 1020.1 |
| 20260831124958 | 72 | 5 | 0.0 | 0.0 | 0.00 | 0.00 | 0.00 | 99 | 1020.2 |
| 20260831123955 | 72 | 270 | 0.0 | 0.0 | 0.00 | 0.00 | 0.00 | 99 | 1020.1 |
| 20260831122955 | 71 | 215 | 0.0 | 0.0 | 0.00 | 0.00 | 0.00 | 99 | 1020.2 |
| 20260831121951 | 72 | 23 | 0.0 | 0.0 | 0.00 | 0.00 | 0.00 | 99 | 1020.3 |
| 20260831120948 | 72 | 220 | 0.0 | 0.0 | 0.00 | 0.00 | 0.00 | 99 | 1020.0 |
| 20260831115943 | 71 | 266 | 0.0 | 0.0 | 0.00 | 0.00 | 0.00 | 99 | 1020.0 |
| 20260831114939 | 70 | 217 | 0.0 | 0.0 | 0.00 | 0.00 | 0.00 | 99 | 1019.9 |
| 20260831113933 | 69 | 226 | 0.0 | 0.0 | 0.00 | 0.00 | 0.00 | 99 | 1020.0 |
| 20260831112928 | 69 | 237 | 0.0 | 0.0 | 0.00 | 0.00 | 0.00 | 99 | 1019.7 |
| 20260831111923 | 69 | 222 | 0.0 | 0.0 | 0.00 | 0.00 | 0.00 | 99 | 1019.5 |
| 20260831110921 | 69 | 224 | 0.0 | 0.0 | 0.00 | 0.00 | 0.00 | 99 | 1019.8 |
| 20260831105919 | 69 | 221 | 0.0 | 0.0 | 0.00 | 0.00 | 0.00 | 99 | 1019.6 |
| 20260831104916 | 69 | 228 | 0.0 | 0.0 | 0.00 | 0.00 | 0.00 | 99 | 1019.4 |
| 20260831103914 | 69 | 218 | 0.0 | 0.0 | 0.00 | 0.00 | 0.00 | 99 | 1019.3 |
| 20260831102909 | 69 | 224 | 0.0 | 0.0 | 0.00 | 0.00 | 0.00 | 99 | 1019.1 |
| 20260831101905 | 68 | 217 | 0.0 | 0.0 | 0.00 | 0.00 | 0.00 | 99 | 1019.2 |
| 20260831100902 | 68 | 220 | 0.0 | 0.0 | 0.00 | 0.00 | 0.00 | 99 | 1019.1 |
| 20260831095857 | 68 | 211 | 0.0 | 0.0 | 0.00 | 0.00 | 0.00 | 99 | 1019.1 |
| 20260831094852 | 68 | 219 | 0.0 | 0.0 | 0.00 | 0.00 | 0.00 | 99 | 1019.0 |
| 20260831093849 | 68 | 220 | 0.0 | 0.0 | 0.00 | 0.00 | 0.00 | 99 | 1019.0 |
| 20260831092847 | 68 | 221 | 0.0 | 0.0 | 0.00 | 0.00 | 0.00 | 99 | 1018.9 |
| 20260831091843 | 68 | 223 | 0.0 | 0.0 | 0.00 | 0.00 | 0.00 | 99 | 1018.8 |
| 20260831090839 | 68 | 224 | 0.0 | 0.0 | 0.00 | 0.00 | 0.00 | 99 | 1018.9 |
| 20260831085838 | 68 | 212 | 0.0 | 0.0 | 0.00 | 0.00 | 0.00 | 99 | 1018.9 |
| 20260831084838 | 67 | 221 | 0.0 | 0.0 | 0.00 | 0.00 | 0.00 | 99 | 1019.0 |
| 20260831083836 | 68 | 217 | 0.0 | 0.0 | 0.00 | 0.00 | 0.00 | 99 | 1018.9 |
| 20260831082836 | 68 | 209 | 0.0 | 0.0 | 0.00 | 0.00 | 0.00 | 99 | 1018.8 |
| 20260831081833 | 68 | 287 | 0.0 | 0.0 | 0.00 | 0.00 | 0.00 | 99 | 1019.0 |
| 20260831080830 | 67 | 225 | 0.0 | 0.0 | 0.00 | 0.00 | 0.00 | 99 | 1018.7 |
| 20260831075826 | 67 | 226 | 0.0 | 0.0 | 0.00 | 0.00 | 0.00 | 99 | 1018.5 |
| 20260831074821 | 67 | 221 | 0.0 | 0.0 | 0.00 | 0.00 | 0.00 | 99 | 1018.7 |
| 20260831073816 | 67 | 229 | 0.0 | 0.0 | 0.00 | 0.00 | 0.00 | 99 | 1018.5 |
| 20260831072816 | 67 | 226 | 0.0 | 0.0 | 0.00 | 0.00 | 0.00 | 99 | 1018.6 |
| 20260831071814 | 67 | 223 | 0.0 | 0.0 | 0.00 | 0.00 | 0.00 | 99 | 1018.5 |
| 20260831070813 | 67 | 222 | 0.0 | 0.0 | 0.00 | 0.00 | 0.00 | 99 | 1018.9 |
| 20260831065811 | 67 | 230 | 0.0 | 0.0 | 0.00 | 0.00 | 0.00 | 99 | 1018.6 |
| 20260831064811 | 67 | 219 | 0.0 | 0.0 | 0.00 | 0.00 | 0.00 | 99 | 1018.6 |
| 20260831063808 | 67 | 216 | 0.0 | 0.0 | 0.00 | 0.00 | 0.00 | 99 | 1018.6 |
| 20260831062808 | 68 | 219 | 0.0 | 0.0 | 0.00 | 0.00 | 0.00 | 99 | 1018.9 |
| 20260831061808 | 67 | 226 | 0.0 | 0.0 | 0.00 | 0.00 | 0.00 | 99 | 1018.8 |
| 20260831060805 | 67 | 212 | 0.0 | 0.0 | 0.00 | 0.00 | 0.00 | 99 | 1018.9 |
| 20260831055804 | 67 | 211 | 0.0 | 0.0 | 0.00 | 0.00 | 0.00 | 99 | 1019.0 |
| 20260831054759 | 68 | 222 | 0.0 | 0.0 | 0.00 | 0.00 | 0.00 | 99 | 1018.9 |
| 20260831053759 | 68 | 224 | 0.0 | 0.0 | 0.00 | 0.00 | 0.00 | 99 | 1019.1 |
| 20260831052759 | 68 | 236 | 0.0 | 0.0 | 0.00 | 0.00 | 0.00 | 99 | 1018.9 |
| 20260831051756 | 68 | 222 | 0.0 | 0.0 | 0.00 | 0.00 | 0.00 | 99 | 1019.0 |
| 20260831050756 | 68 | 241 | 0.0 | 0.0 | 0.00 | 0.00 | 0.00 | 99 | 1019.0 |
| 20260831045756 | 68 | 229 | 0.0 | 0.0 | 0.00 | 0.00 | 0.00 | 99 | 1019.0 |
| 20260831044751 | 69 | 218 | 0.0 | 0.0 | 0.00 | 0.00 | 0.00 | 99 | 1019.1 |
| 20260831043748 | 69 | 212 | 0.0 | 0.0 | 0.00 | 0.00 | 0.00 | 99 | 1019.2 |
| 20260831042748 | 69 | 219 | 0.0 | 0.0 | 0.00 | 0.00 | 0.00 | 99 | 1019.2 |
| 20260831041744 | 69 | 212 | 0.0 | 0.0 | 0.00 | 0.00 | 0.00 | 99 | 1019.1 |
| 20260831040744 | 69 | 223 | 0.0 | 0.0 | 0.00 | 0.00 | 0.00 | 99 | 1019.4 |
| 20260831035742 | 69 | 215 | 0.0 | 0.0 | 0.00 | 0.63 | 0.63 | 99 | 1019.5 |
| 20260831034741 | 70 | 210 | 0.0 | 0.0 | 0.00 | 0.63 | 0.63 | 99 | 1019.5 |
| 20260831033737 | 69 | 225 | 0.0 | 0.0 | 0.00 | 0.63 | 0.63 | 99 | 1019.6 |
| 20260831032732 | 70 | 224 | 0.0 | 0.0 | 0.00 | 0.63 | 0.63 | 99 | 1019.4 |
| 20260831031728 | 69 | 229 | 0.0 | 0.0 | 0.00 | 0.63 | 0.63 | 99 | 1019.5 |
| 20260831030727 | 70 | 217 | 0.0 | 0.0 | 0.00 | 0.63 | 0.63 | 99 | 1019.4 |
| 20260831025725 | 70 | 220 | 0.0 | 0.0 | 0.00 | 0.63 | 0.63 | 99 | 1019.7 |
| 20260831024722 | 70 | 250 | 0.0 | 0.0 | 0.00 | 0.63 | 0.63 | 99 | 1019.7 |
| 20260831023720 | 69 | 216 | 0.0 | 0.0 | 0.00 | 0.63 | 0.63 | 99 | 1019.7 |
| 20260831022714 | 69 | 216 | 0.0 | 0.0 | 0.00 | 0.63 | 0.63 | 99 | 1020.0 |
| 20260831021714 | 69 | 209 | 0.0 | 0.0 | 0.00 | 0.63 | 0.63 | 99 | 1020.0 |
| 20260831020711 | 69 | 211 | 0.0 | 0.0 | 0.00 | 0.63 | 0.63 | 99 | 1020.1 |
| 20260831015706 | 69 | 217 | 0.0 | 0.0 | 0.00 | 0.63 | 0.63 | 99 | 1020.1 |
| 20260831014701 | 69 | 223 | 0.0 | 0.0 | 0.00 | 0.63 | 0.63 | 99 | 1019.9 |
| 20260831013658 | 69 | 186 | 0.0 | 0.0 | 0.00 | 0.63 | 0.63 | 99 | 1020.3 |
| 20260831012658 | 70 | 221 | 0.0 | 0.0 | 0.00 | 0.63 | 0.63 | 99 | 1020.3 |
| 20260831011653 | 70 | 221 | 0.0 | 0.0 | 0.00 | 0.63 | 0.63 | 99 | 1020.1 |
| 20260831010651 | 69 | 224 | 0.0 | 0.0 | 0.00 | 0.63 | 0.63 | 99 | 1019.8 |
| 20260831005645 | 70 | 225 | 0.0 | 0.0 | 0.00 | 0.63 | 0.63 | 99 | 1019.9 |
| 20260831004642 | 70 | 220 | 0.0 | 0.0 | 0.00 | 0.63 | 0.63 | 99 | 1019.6 |
| 20260831003640 | 70 | 209 | 0.0 | 0.0 | 0.00 | 0.63 | 0.63 | 99 | 1019.5 |
| 20260831002639 | 70 | 208 | 0.0 | 0.0 | 0.00 | 0.63 | 0.63 | 99 | 1019.4 |
| 20260831001636 | 71 | 211 | 0.0 | 0.0 | 0.00 | 0.63 | 0.63 | 99 | 1019.3 |
| 20260831000634 | 71 | 237 | 0.0 | 0.0 | 0.00 | 0.63 | 0.63 | 99 | 1019.3 |
| 20260830235633 | 71 | 199 | 0.0 | 0.0 | 0.00 | 0.63 | 0.63 | 99 | 1019.0 |
| 20260830234628 | 71 | 233 | 0.0 | 0.0 | 0.00 | 0.63 | 0.63 | 99 | 1019.2 |
| 20260830233625 | 72 | 231 | 0.0 | 0.0 | 0.00 | 0.63 | 0.63 | 99 | 1019.4 |
| 20260830232623 | 71 | 191 | 0.0 | 0.0 | 0.00 | 0.63 | 0.63 | 99 | 1019.0 |
| 20260830231620 | 70 | 295 | 0.0 | 0.0 | 0.31 | 0.63 | 0.63 | 99 | 1019.3 |
| 20260830230615 | 71 | 171 | 2.0 | 3.0 | 2.88 | 0.60 | 0.60 | 97 | 1019.8 |
| 20260830225610 | 76 | 277 | 2.0 | 4.0 | 0.59 | 0.10 | 0.10 | 92 | 1019.8 |
| 20260830224609 | 79 | 224 | 7.0 | 10.0 | 0.00 | 0.00 | 0.00 | 85 | 1019.5 |
| 20260830223609 | 79 | 216 | 0.0 | 0.0 | 0.00 | 0.00 | 0.00 | 85 | 1019.1 |
| 20260830222608 | 79 | 204 | 0.0 | 0.0 | 0.00 | 0.00 | 0.00 | 86 | 1019.0 |
| 20260830221606 | 80 | 199 | 0.0 | 0.0 | 0.00 | 0.00 | 0.00 | 83 | 1018.8 |
| 20260830220602 | 80 | 174 | 0.0 | 0.0 | 0.00 | 0.00 | 0.00 | 83 | 1018.5 |
| 20260830215600 | 81 | 195 | 0.0 | 0.0 | 0.00 | 0.00 | 0.00 | 83 | 1018.5 |
| 20260830214556 | 82 | 110 | 3.0 | 3.0 | 0.00 | 0.00 | 0.00 | 82 | 1018.3 |
| 20260830213551 | 83 | 152 | 2.0 | 3.0 | 0.00 | 0.00 | 0.00 | 82 | 1018.5 |
| 20260830212548 | 83 | 98 | 3.0 | 3.0 | 0.00 | 0.00 | 0.00 | 80 | 1018.5 |
| 20260830211543 | 82 | 219 | 0.0 | 0.0 | 0.00 | 0.00 | 0.00 | 86 | 1018.4 |
| 20260830210538 | 82 | 214 | 0.0 | 0.0 | 0.00 | 0.00 | 0.00 | 87 | 1018.3 |
| 20260830205535 | 82 | 197 | 0.0 | 1.0 | 0.00 | 0.00 | 0.00 | 84 | 1018.5 |
| 20260830204530 | 85 | 212 | 2.0 | 2.0 | 0.00 | 0.00 | 0.00 | 81 | 1018.6 |
| 20260830203526 | 86 | 227 | 0.0 | 1.0 | 0.00 | 0.00 | 0.00 | 74 | 1018.6 |
| 20260830202521 | 86 | 203 | 0.0 | 0.0 | 0.00 | 0.00 | 0.00 | 72 | 1018.8 |
| 20260830201521 | 85 | 236 | 0.0 | 0.0 | 0.00 | 0.00 | 0.00 | 74 | 1018.9 |
| 20260830200518 | 85 | 181 | 1.0 | 2.0 | 0.00 | 0.00 | 0.00 | 73 | 1018.9 |
| 20260830195518 | 85 | 167 | 2.0 | 2.0 | 0.00 | 0.00 | 0.00 | 72 | 1019.2 |
| 20260830194516 | 88 | 209 | 1.0 | 1.0 | 0.00 | 0.00 | 0.00 | 69 | 1018.9 |
| 20260830193515 | 89 | 180 | 0.0 | 1.0 | 0.00 | 0.00 | 0.00 | 69 | 1018.9 |
| 20260830192512 | 90 | 293 | 4.0 | 4.0 | 0.00 | 0.00 | 0.00 | 66 | 1018.9 |
| 20260830191507 | 89 | 222 | 0.0 | 1.0 | 0.00 | 0.00 | 0.00 | 71 | 1019.1 |
| 20260830190503 | 88 | 171 | 2.0 | 4.0 | 0.00 | 0.00 | 0.00 | 68 | 1019.4 |
| 20260830185503 | 88 | 216 | 0.0 | 0.0 | 0.00 | 0.00 | 0.00 | 69 | 1019.6 |
| 20260830184458 | 87 | 78 | 2.0 | 3.0 | 0.00 | 0.00 | 0.00 | 71 | 1019.6 |
| 20260830183453 | 87 | 212 | 2.0 | 3.0 | 0.00 | 0.00 | 0.00 | 70 | 1019.9 |
| 20260830182450 | 86 | 113 | 2.0 | 2.0 | 0.00 | 0.00 | 0.00 | 71 | 1020.0 |
| 20260830181448 | 87 | 190 | 2.0 | 2.0 | 0.00 | 0.00 | 0.00 | 72 | 1020.2 |
| 20260830180447 | 87 | 219 | 1.0 | 2.0 | 0.00 | 0.00 | 0.00 | 74 | 1020.5 |
| 20260830175446 | 86 | 160 | 4.0 | 6.0 | 0.00 | 0.00 | 0.00 | 71 | 1020.5 |
| 20260830174443 | 84 | 205 | 1.0 | 2.0 | 0.00 | 0.00 | 0.00 | 79 | 1020.9 |
| 20260830173440 | 86 | 267 | 1.0 | 2.0 | 0.00 | 0.00 | 0.00 | 75 | 1021.1 |
| 20260830172437 | 83 | 174 | 2.0 | 3.0 | 0.00 | 0.00 | 0.00 | 77 | 1021.1 |
| 20260830171434 | 83 | 169 | 2.0 | 3.0 | 0.00 | 0.00 | 0.00 | 79 | 1021.3 |
| 20260830170434 | 82 | 221 | 0.0 | 1.0 | 0.00 | 0.00 | 0.00 | 82 | 1021.5 |
| 20260830165428 | 82 | 198 | 1.0 | 2.0 | 0.00 | 0.00 | 0.00 | 82 | 1021.7 |
| 20260830164426 | 82 | 199 | 3.0 | 3.0 | 0.00 | 0.00 | 0.00 | 81 | 1022.0 |
| 20260830163424 | 81 | 231 | 0.0 | 0.0 | 0.00 | 0.00 | 0.00 | 83 | 1021.9 |
| 20260830162420 | 78 | 156 | 3.0 | 4.0 | 0.00 | 0.00 | 0.00 | 87 | 1021.9 |
| 20260830161419 | 77 | 211 | 0.0 | 1.0 | 0.00 | 0.00 | 0.00 | 88 | 1022.2 |
| 20260830160416 | 77 | 186 | 0.0 | 0.0 | 0.00 | 0.00 | 0.00 | 88 | 1022.4 |
| 20260830155414 | 78 | 172 | 2.0 | 2.0 | 0.00 | 0.00 | 0.00 | 87 | 1022.3 |
| 20260830154410 | 79 | 215 | 2.0 | 3.0 | 0.00 | 0.00 | 0.00 | 84 | 1022.2 |
| 20260830153408 | 79 | 181 | 3.0 | 4.0 | 0.00 | 0.00 | 0.00 | 85 | 1022.2 |
| 20260830152408 | 80 | 199 | 0.0 | 1.0 | 0.00 | 0.00 | 0.00 | 87 | 1022.4 |
| 20260830151407 | 78 | 150 | 2.0 | 3.0 | 0.00 | 0.00 | 0.00 | 87 | 1022.3 |
| 20260830150401 | 78 | 157 | 3.0 | 4.0 | 0.00 | 0.00 | 0.00 | 87 | 1022.2 |
| 20260830145357 | 79 | 213 | 1.0 | 2.0 | 0.00 | 0.00 | 0.00 | 89 | 1022.1 |
| 20260830144354 | 78 | 160 | 4.0 | 4.0 | 0.00 | 0.00 | 0.00 | 86 | 1022.2 |
| 20260830143349 | 77 | 171 | 0.0 | 1.0 | 0.00 | 0.00 | 0.00 | 89 | 1022.2 |
| 20260830142349 | 76 | 199 | 0.0 | 0.0 | 0.00 | 0.00 | 0.00 | 91 | 1022.2 |
| 20260830141346 | 76 | 200 | 0.0 | 1.0 | 0.00 | 0.00 | 0.00 | 93 | 1022.2 |
| 20260830140342 | 75 | 147 | 0.0 | 0.0 | 0.00 | 0.00 | 0.00 | 93 | 1022.2 |
| 20260830135337 | 74 | 192 | 0.0 | 0.0 | 0.00 | 0.00 | 0.00 | 94 | 1022.2 |
| 20260830134333 | 74 | 217 | 2.0 | 3.0 | 0.00 | 0.00 | 0.00 | 95 | 1022.3 |
| 20260830133331 | 74 | 172 | 0.0 | 0.0 | 0.00 | 0.00 | 0.00 | 95 | 1022.8 |
| 20260830132327 | 73 | 175 | 0.0 | 0.0 | 0.00 | 0.00 | 0.00 | 97 | 1022.6 |